Regional Weather Roundup
Issued by NWS

Home | Current Version | Previous Version | Graphics & Text | Print | Product List | Glossary On
Versions: 1 2 3 4 5 6 7 8 9 10 11 12 13 14 15 16 17 18 19 20 21 22 23 24 25 26 27 28 29 30 31 32 33 34 35 36 37 38 39 40 41 42 43 44 45 46 47 48 49 50
000
ASUS44 KMEG 132200
RWRTN
TENNESSEE HOURLY STATE WEATHER ROUNDUP
NATIONAL WEATHER SERVICE MEMPHIS TN
500 PM CDT SUN JUL 13 2014

TNZ002-004-019-021-049-052-054-088>092-132300-
WEST TENNESSEE

CITY           SKY/WX    TMP DP  RH WIND       PRES   REMARKS
MEMPHIS INTL   MOSUNNY   92  73  53 CALM      30.00F HX 100
NWS MEMPHIS      N/A     90 N/A N/A MISG        N/A
JACKSON        CLOUDY    90  71  53 SW5       30.00F HX  96
DYERSBURG      SUNNY     93  70  46 SW6       29.99F HX  99
PARIS          MOSUNNY   90  72  55 SW10      29.99F HX  96
$$

TNZ008-025-027-028-033-062-065-066-132300-
NORTH MIDDLE TENNESSEE

CITY           SKY/WX    TMP DP  RH WIND       PRES   REMARKS
NASHVILLE      PTSUNNY   94  70  45 SW7       29.99F HX 100
CLARKSVILLE    SUNNY     93  70  46 SW12      29.97F HX  99
CROSSVILLE     PTSUNNY   81  70  69 S3        30.09F
$$

TNZ061-075-076-078-094-096-097-132300-
SOUTH MIDDLE TENNESSEE

CITY           SKY/WX    TMP DP  RH WIND       PRES   REMARKS
FAYETTEVILLE   SUNNY     88  72  58 S10       30.04F HX  94
WINCHESTER     SUNNY     91  70  49 SW9       30.04F HX  97
SHELBYVILLE    SUNNY     93  70  46 SW10      30.02F HX  99
$$

TNZ017-018-042-046-047-132300-
NORTHEAST TENNESSEE

CITY           SKY/WX    TMP DP  RH WIND       PRES   REMARKS
TRI CITIES     CLOUDY    86  65  49 NW9       30.05S
ELIZABETHTON   CLEAR     84  66  54 W6        30.06S
$$

TNZ012-013-036-069-073-074-132300-
CENTRAL EAST TENNESSEE

CITY           SKY/WX    TMP DP  RH WIND       PRES   REMARKS
KNOXVILLE      CLOUDY    84  69  60 NW9       30.03F
OAK RIDGE      MOSUNNY   83  72  69 VRB3      30.04F
$$

TNZ083-085-099-132300-
SOUTHEAST TENNESSEE

CITY           SKY/WX    TMP DP  RH WIND       PRES   REMARKS
CHATTANOOGA    PTSUNNY   90  66  45 W8        30.04S HX  92
$$

SKY/WX REPORTED AS FAIR MEANS FEW OR NO CLOUDS BELOW
12 THOUSAND FEET.



USA.gov is the U.S. government's official web portal to all federal, state and local government web resources and services.